Regional Weather Roundup
Issued by NWS

Home | Current Version | Previous Version | Text Only | Print | Product List | Glossary Off
Versions: 1 2 3 4 5 6 7 8 9 10 11 12 13 14 15 16 17 18 19 20 21 22 23 24 25 26 27 28 29 30 31 32 33 34 35 36 37 38 39 40 41 42 43 44 45 46 47 48 49 50

000
ASUS43 KOAX 240110
RWRNE

WEATHER ROUNDUP FOR NEBRASKA
NATIONAL WEATHER SERVICE OMAHA NE
800 PM CDT MON APR 23 2018

NOTES: SATELLITE DATA IS BEING USED TO AUGMENT CLOUD COVER ABOVE
       12000 FEET.
       "FAIR" INDICATES FEW OR NO CLOUDS BELOW 12,000 FEET WITH NO
       SIGNIFICANT WEATHER AND/OR OBSTRUCTIONS TO VISIBILITY.


NEZ001>004-019>022-054>056-240200-
NEBRASKA PANHANDLE

CITY           SKY/WX    TMP DP  RH WIND       PRES   REMARKS
SCOTTSBLUFF    LGT RAIN  50  49  96 N28G38    30.06R
ALLIANCE       CLOUDY    60  42  51 SE3       30.02R
CHADRON        LGT RAIN  44  41  89 W26G39    30.12R
GORDON         CLOUDY    63  43  48 W3        30.03R
KIMBALL        CLOUDY    58  44  60 E9        30.00F
SIDNEY         CLOUDY    61  42  49 S12       30.00F
$$

NEZ057>060-069>072-079>082-240200-
SOUTHWEST NEBRASKA

CITY           SKY/WX    TMP DP  RH WIND       PRES   REMARKS
NORTH PLATTE   MOCLDY    65  41  41 S8        30.03S
IMPERIAL       PTCLDY    64  38  38 SE12      30.01S
LEXINGTON      PTCLDY    63  40  44 SE7       30.05S
MCCOOK         MOCLDY    66  40  38 SE10      30.03F
OGALLALA       PTCLDY    65  38  37 S9        30.01S
$$

NEZ005>010-023>029-035>040-094-240200-
NORTH CENTRAL NEBRASKA

CITY           SKY/WX    TMP DP  RH WIND       PRES   REMARKS
AINSWORTH      PTCLDY    61  42  48 S6        30.05S
BROKEN BOW     PTCLDY    63  41  44 SE7       30.05S
O`NEILL        PTCLDY    66  35  32 E5        30.07S
ORD            PTCLDY    65  37  35 SE5       30.05S
THEDFORD       PTCLDY    65  40  40 SE10      30.05S
$$

NEZ041-046>049-061>064-073>077-083>087-240200-
SOUTH CENTRAL NEBRASKA

CITY           SKY/WX    TMP DP  RH WIND       PRES   REMARKS
GRAND ISLAND   CLOUDY    66  44  45 SE3       30.06S
AURORA         CLOUDY    65  36  34 SE6       30.05S
HASTINGS       CLEAR     66  37  34 S5        30.06S
HEBRON         CLEAR     67  33  28 E3        30.05S
HOLDREGE       CLOUDY    63  40  43 SE8       30.06S
KEARNEY        CLOUDY    64  41  42 SE9       30.06S
YORK             N/A     64  34  32 CALM      30.06S
$$

NEZ011>018-030>034-042>045-240200-
NORTHEAST NEBRASKA

CITY           SKY/WX    TMP DP  RH WIND       PRES   REMARKS
NORFOLK        CLEAR     64  34  32 E7        30.05S
ALBION         CLEAR     65  39  38 CALM      30.06S
BLAIR          CLEAR     67  32  26 NE6       30.06S
COLUMBUS       CLEAR     63  35  35 E8        30.06S
FREMONT        CLEAR     69  30  22 CALM      30.06S
TEKAMAH        CLEAR     66  32  28 E8        30.06S
WAYNE          CLEAR     62  31  30 E6        30.07S
$$

NEZ050>053-065>068-078-088>093-240200-
SOUTHEAST NEBRASKA

CITY           SKY/WX    TMP DP  RH WIND       PRES   REMARKS
LINCOLN        CLEAR     62  32  32 NE8       30.06S
OMAHA EPPLEY   PTCLDY    69  29  22 NE7       30.05S
BEATRICE       CLEAR     69  30  23 E3        30.04S
FALLS CITY     CLEAR     66  31  27 NE5       30.03R
NEBRASKA CITY  CLEAR     67  32  27 E5        30.05S
PLATTSMOUTH    CLEAR     69  28  22 NE6       30.05S
$$

NEZ044-045-051>053-067-240200-
OMAHA AREA

CITY           SKY/WX    TMP DP  RH WIND       PRES   REMARKS
OMAHA EPPLEY   PTCLDY    69  29  22 NE7       30.05S
BLAIR          CLEAR     67  32  26 NE6       30.06S
FREMONT        CLEAR     69  30  22 CALM      30.06S
MILLARD        CLEAR     72  29  20 CALM      30.06R
OFFUTT AFB     CLEAR     66  30  26 E5        30.04S
PLATTSMOUTH    CLEAR     69  28  22 NE6       30.05S
WAHOO          FAIR      69  19  15 CALM      30.06S
$$




USA.gov is the U.S. government's official web portal to all federal, state and local government web resources and services.